Location: Amherst
(42.5000°N, 72.5000°W)
Time: 08:12:19
(UTC-04:00)

ISS - Pass Details

Date: 23 May 2018
Orbit: 402 x 407 km, 51.6° (Epoch: 25 May)

Event Time Altitude Azimuth Distance (km) Brightness Sun altitude
Rises 00:48:29 0° 302° (WNW) 2,319 0.4 -26.9°
Reaches altitude 10° 00:51:04 10° 323° (NW) 1,458 -0.4 -26.9°
Maximum altitude 00:53:19 17° 7° (N) 1,102 -0.8 -26.9°
Drops below altitude 10° 00:55:35 10° 51° (NE) 1,457 -0.5 -26.9°
Sets 00:58:10 0° 72° (ENE) 2,315 0.3 -26.9°
